START_TIME,STEP,MOV.,M29,t_acc.,H22,t_acc.,H26,t_acc.,H30,t_acc.
1986-01-25 15:00:33.280 ,7,0,0.,24.0,0.,24.0,0.,24.0,0.,24.0
1986-01-25 15:00:57.280 ,6,1,0.,24.0,0.,24.0,0.,24.0,0.,24.0
1986-01-25 15:01:21.280 ,6,0,0.,24.0,0.,24.0,0.,24.0,0.,24.0
1986-01-25 15:01:45.280 ,5,1,0.,24.0,0.,24.0,0.,24.0,0.,24.0
1986-01-25 15:02:09.280 ,5,0,0.,24.0,0.,24.0,0.,24.0,0.,24.0
1986-01-25 15:02:33.280 ,4,1,0.,24.0,0.,24.0,0.,24.0,0.,24.0
1986-01-25 15:02:57.280 ,4,0,0.,24.0,0.,24.0,0.,24.0,0.,24.0
1986-01-25 15:03:21.280 ,3,1,0.,24.0,0.,24.0,0.,24.0,0.,24.0
1986-01-25 15:03:45.280 ,3,0,0.,24.0,0.,24.0,0.,24.0,0.,24.0
1986-01-25 15:04:09.280 ,2,1,0.,24.0,0.,24.0,0.,24.0,0.,24.0
1986-01-25 15:04:33.280 ,2,0,0.,24.0,0.,24.0,0.,24.0,0.,24.0
1986-01-25 15:04:57.280 ,1,1,0.,24.0,0.,24.0,0.,24.0,0.,24.0
1986-01-25 15:05:21.280 ,1,0,0.,24.0,0.,24.0,0.,24.0,0.,24.0
1986-01-25 15:05:45.280 ,0,1,0.,24.0,0.,24.0,0.,24.0,0.,24.0
1986-01-25 15:06:09.280 ,0,0,0.,24.0,0.,24.0,0.,24.0,0.,24.0
1986-01-25 15:06:33.280 ,0,1,0.,24.0,0.,24.0,0.,24.0,0.,24.0
1986-01-25 15:06:57.280 ,0,0,0.,24.0,0.,24.0,0.,24.0,0.,24.0
1986-01-25 15:07:21.280 ,1,1,0.,24.0,0.,24.0,0.,24.0,0.,24.0
1986-01-25 15:07:45.280 ,1,0,0.,24.0,0.,24.0,0.,24.0,0.,24.0
1986-01-25 15:08:09.280 ,2,1,0.,24.0,0.,24.0,0.,24.0,0.,24.0
1986-01-25 15:08:33.280 ,2,0,0.,24.0,0.,24.0,0.,24.0,0.,24.0
1986-01-25 15:08:57.280 ,3,1,0.,24.0,0.,24.0,0.,24.0,0.,24.0
1986-01-25 15:09:21.280 ,3,0,0.,24.0,0.,24.0,0.,24.0,0.,24.0
1986-01-25 15:09:45.280 ,4,1,0.,24.0,0.,24.0,0.,24.0,0.,24.0
1986-01-25 15:10:09.280 ,4,0,0.,24.0,0.,24.0,0.,24.0,0.,24.0
1986-01-25 15:10:33.280 ,5,1,0.,24.0,0.,24.0,0.,24.0,0.,24.0
1986-01-25 15:10:57.280 ,5,0,0.,24.0,0.,24.0,0.,24.0,0.,24.0
1986-01-25 15:11:21.280 ,6,1,0.,24.0,0.,24.0,0.,24.0,0.,24.0
1986-01-25 15:11:45.280 ,6,0,0.,24.0,0.,24.0,0.,24.0,0.,24.0
1986-01-25 15:12:09.280 ,7,1,0.,24.0,0.,24.0,0.,24.0,0.,24.0
1986-01-25 15:12:33.280 ,7,0,0.,24.0,0.,24.0,0.,24.0,0.,24.0
1986-01-25 15:12:57.280 ,7,1,0.,24.0,0.,24.0,0.,24.0,0.,24.0
1986-01-25 15:13:21.280 ,7,0,0.,24.0,0.,24.0,0.,24.0,0.,24.0
1986-01-25 15:13:45.280 ,6,1,0.,24.0,0.,24.0,0.,24.0,0.,24.0
1986-01-25 15:14:09.280 ,6,0,0.,24.0,0.,24.0,0.,24.0,0.,24.0
1986-01-25 15:14:33.280 ,5,1,0.,24.0,0.,24.0,0.,24.0,0.,24.0
1986-01-25 15:14:57.280 ,5,0,0.,24.0,0.,24.0,0.,24.0,0.,24.0
1986-01-25 15:15:21.280 ,4,1,0.,24.0,0.,24.0,0.,24.0,0.,24.0
1986-01-25 15:15:45.280 ,4,0,0.,24.0,0.,24.0,0.,24.0,0.,24.0
1986-01-25 15:16:09.280 ,3,1,0.,24.0,0.,24.0,0.,24.0,0.,24.0
1986-01-25 15:16:33.280 ,3,0,0.,24.0,0.,24.0,0.,24.0,0.,24.0
1986-01-25 15:16:57.280 ,2,1,0.,24.0,0.,24.0,0.,24.0,0.,24.0
1986-01-25 15:17:21.280 ,2,0,0.,24.0,0.,24.0,0.,24.0,0.,24.0
1986-01-25 15:17:45.280 ,1,1,0.,24.0,0.,24.0,0.,24.0,0.,24.0
1986-01-25 15:18:09.280 ,1,0,0.,24.0,0.,24.0,0.,24.0,0.,24.0
1986-01-25 15:18:33.280 ,0,1,0.,24.0,0.,24.0,0.,24.0,0.,24.0
1986-01-25 15:18:57.280 ,0,0,0.,24.0,0.,24.0,0.,24.0,0.,24.0
1986-01-25 15:19:21.280 ,0,1,0.,24.0,0.,24.0,0.,24.0,0.,24.0
1986-01-25 15:19:45.280 ,0,0,0.,24.0,0.,24.0,0.,24.0,0.,24.0
1986-01-25 15:20:09.280 ,1,1,0.,24.0,0.,24.0,0.,24.0,0.,24.0
1986-01-25 15:20:33.280 ,1,0,0.,24.0,0.,24.0,0.,24.0,0.,24.0
1986-01-25 15:20:57.280 ,2,1,0.,24.0,0.,24.0,0.,24.0,0.,24.0
1986-01-25 15:21:21.280 ,2,0,0.,24.0,0.,24.0,0.,24.0,0.,24.0
1986-01-25 15:21:45.280 ,3,1,0.,24.0,0.,24.0,0.,24.0,0.,24.0
1986-01-25 15:22:09.280 ,3,0,0.,24.0,0.,24.0,0.,24.0,0.,24.0
1986-01-25 15:22:33.280 ,4,1,0.,24.0,0.,24.0,0.,24.0,0.,24.0
1986-01-25 15:22:57.280 ,4,0,0.,24.0,0.,24.0,0.,24.0,0.,24.0
1986-01-25 15:23:21.280 ,5,1,0.,24.0,0.,24.0,0.,24.0,0.,24.0
1986-01-25 15:23:45.280 ,5,0,0.,24.0,0.,24.0,0.,24.0,0.,24.0
1986-01-25 15:24:09.280 ,6,1,0.,24.0,0.,24.0,0.,24.0,0.,24.0
1986-01-25 15:24:33.280 ,6,0,0.,24.0,0.,24.0,0.,24.0,0.,24.0
1986-01-25 15:24:57.280 ,7,1,0.,24.0,0.,24.0,0.,24.0,0.,24.0
1986-01-25 15:25:21.280 ,7,0,0.,24.0,0.,24.0,0.,24.0,0.,24.0
1986-01-25 15:25:45.280 ,7,1,0.,24.0,0.,24.0,0.,24.0,0.,24.0
1986-01-25 15:26:09.280 ,7,0,0.,24.0,0.,24.0,0.,24.0,0.,24.0
1986-01-25 15:26:33.280 ,6,1,0.,24.0,0.,24.0,0.,24.0,0.,24.0
1986-01-25 15:26:57.280 ,6,0,0.,24.0,0.,24.0,0.,24.0,0.,24.0
1986-01-25 15:27:21.280 ,5,1,0.,24.0,0.,24.0,0.,24.0,0.,24.0
1986-01-25 15:27:45.280 ,5,0,0.,24.0,0.,24.0,0.,24.0,0.,24.0
1986-01-25 15:28:09.280 ,4,1,0.,24.0,0.,24.0,0.,24.0,0.,24.0
1986-01-25 15:28:33.280 ,4,0,0.,24.0,0.,24.0,0.,24.0,0.,24.0
1986-01-25 15:28:57.280 ,3,1,0.,24.0,0.,24.0,0.,24.0,0.,24.0
1986-01-25 15:29:21.280 ,3,0,0.,24.0,0.,24.0,0.,24.0,0.,24.0
1986-01-25 15:29:45.280 ,2,1,0.,24.0,0.,24.0,0.,24.0,0.,24.0
1986-01-25 15:30:09.280 ,2,0,0.,24.0,0.,24.0,0.,24.0,0.,24.0
1986-01-25 15:30:33.280 ,1,1,0.,24.0,0.,24.0,0.,24.0,0.,24.0
1986-01-25 15:30:57.280 ,1,0,0.,24.0,0.,24.0,0.,24.0,0.,24.0
1986-01-25 15:31:21.280 ,0,1,0.,24.0,0.,24.0,0.,24.0,0.,24.0
1986-01-25 15:31:45.280 ,0,0,0.,24.0,0.,24.0,0.,24.0,0.,24.0
1986-01-25 15:32:09.280 ,0,1,0.,24.0,0.,24.0,0.,24.0,0.,24.0
1986-01-25 15:32:33.280 ,0,0,0.,24.0,0.,24.0,0.,24.0,0.,24.0
1986-01-25 15:32:57.280 ,1,1,0.,24.0,0.,24.0,0.,24.0,0.,24.0
1986-01-25 15:33:21.280 ,1,0,0.,24.0,0.,24.0,0.,24.0,0.,24.0
1986-01-25 15:33:45.280 ,2,1,0.,24.0,0.,24.0,0.,24.0,0.,24.0
1986-01-25 15:34:09.280 ,2,0,0.,24.0,0.,24.0,0.,24.0,0.,24.0
1986-01-25 15:34:33.280 ,3,1,0.,24.0,0.,24.0,0.,24.0,0.,24.0
1986-01-25 15:34:57.280 ,3,0,0.,24.0,0.,24.0,0.,24.0,0.,24.0
1986-01-25 15:35:21.280 ,4,1,0.,24.0,0.,24.0,0.,24.0,0.,24.0
1986-01-25 15:35:45.280 ,4,0,0.,24.0,0.,24.0,0.,24.0,0.,24.0
1986-01-25 15:36:09.280 ,5,1,0.,24.0,0.,24.0,0.,24.0,0.,24.0
1986-01-25 15:36:33.280 ,5,0,0.,24.0,0.,24.0,0.,24.0,0.,24.0
1986-01-25 15:36:57.280 ,6,1,0.,24.0,0.,24.0,0.,24.0,0.,24.0
1986-01-25 15:37:21.280 ,6,0,0.,24.0,0.,24.0,0.,24.0,0.,24.0
1986-01-25 15:37:45.280 ,7,1,0.,24.0,0.,24.0,0.,24.0,0.,24.0
1986-01-25 15:38:09.280 ,7,0,0.,24.0,0.,24.0,0.,24.0,0.,24.0
1986-01-25 15:38:33.280 ,7,1,0.,24.0,0.,24.0,0.,24.0,0.,24.0
1986-01-25 15:38:57.280 ,7,0,0.,24.0,0.,24.0,0.,24.0,0.,24.0
1986-01-25 15:39:21.280 ,6,1,0.,24.0,0.,24.0,0.,24.0,0.,24.0
1986-01-25 15:39:45.280 ,6,0,0.,24.0,0.,24.0,0.,24.0,0.,24.0
1986-01-25 15:40:09.280 ,5,1,0.,24.0,0.,24.0,0.,24.0,0.,24.0
1986-01-25 15:40:33.280 ,5,0,0.,24.0,0.,24.0,0.,24.0,0.,24.0
1986-01-25 15:40:57.280 ,4,1,0.,24.0,0.,24.0,0.,24.0,0.,24.0
1986-01-25 15:41:21.280 ,4,0,0.,24.0,0.,24.0,0.,24.0,0.,24.0
1986-01-25 15:41:45.280 ,3,1,0.,24.0,0.,24.0,0.,24.0,0.,24.0
1986-01-25 15:42:09.280 ,3,0,0.,24.0,0.,24.0,0.,24.0,0.,24.0
1986-01-25 15:42:33.280 ,2,1,0.,24.0,0.,24.0,0.,24.0,0.,24.0
1986-01-25 15:42:57.280 ,2,0,0.,24.0,0.,24.0,0.,24.0,0.,24.0
1986-01-25 15:43:21.280 ,1,1,0.,24.0,0.,24.0,0.,24.0,0.,24.0
1986-01-25 15:43:45.280 ,1,0,0.,24.0,0.,24.0,0.,24.0,0.,24.0
1986-01-25 15:44:09.280 ,0,1,0.,24.0,0.,24.0,0.,24.0,0.,24.0
1986-01-25 15:44:33.280 ,0,0,0.,24.0,0.,24.0,0.,24.0,0.,24.0
1986-01-25 15:44:57.280 ,0,1,0.,24.0,0.,24.0,0.,24.0,0.,24.0
1986-01-25 15:45:21.280 ,0,0,0.,24.0,0.,24.0,0.,24.0,0.,24.0
1986-01-25 15:45:45.280 ,1,1,0.,24.0,0.,24.0,0.,24.0,0.,24.0
1986-01-25 15:46:09.280 ,1,0,0.,24.0,0.,24.0,0.,24.0,0.,24.0
1986-01-25 15:46:33.280 ,2,1,0.,24.0,0.,24.0,0.,24.0,0.,24.0
1986-01-25 15:46:57.280 ,2,0,0.,24.0,0.,24.0,0.,24.0,0.,24.0
1986-01-25 15:47:21.280 ,3,1,0.,24.0,0.,24.0,0.,24.0,0.,24.0
1986-01-25 15:47:45.280 ,3,0,0.,24.0,0.,24.0,0.,24.0,0.,24.0
1986-01-25 15:48:09.270 ,4,1,0.,24.0,0.,24.0,0.,24.0,0.,24.0
1986-01-25 15:48:33.270 ,4,0,0.,24.0,0.,24.0,0.,24.0,0.,24.0
1986-01-25 15:48:57.270 ,5,1,0.,24.0,0.,24.0,0.,24.0,0.,24.0
1986-01-25 15:49:21.270 ,5,0,0.,24.0,0.,24.0,0.,24.0,0.,24.0
1986-01-25 15:49:45.270 ,6,1,0.,24.0,0.,24.0,0.,24.0,0.,24.0
1986-01-25 15:50:09.270 ,6,0,0.,24.0,0.,24.0,0.,24.0,0.,24.0
1986-01-25 15:50:33.270 ,7,1,0.,24.0,0.,24.0,0.,24.0,0.,24.0
1986-01-25 15:50:57.270 ,7,0,0.,24.0,0.,24.0,0.,24.0,0.,24.0
1986-01-25 15:51:21.270 ,7,1,0.,24.0,0.,24.0,0.,24.0,0.,24.0
1986-01-25 15:51:45.270 ,7,0,0.,24.0,0.,24.0,0.,24.0,0.,24.0
1986-01-25 15:52:09.270 ,6,1,0.,24.0,0.,24.0,0.,24.0,0.,24.0
1986-01-25 15:52:33.270 ,6,0,0.,24.0,0.,24.0,0.,24.0,0.,24.0
1986-01-25 15:52:57.270 ,5,1,0.,24.0,0.,24.0,0.,24.0,0.,24.0
1986-01-25 15:53:21.270 ,5,0,0.,24.0,0.,24.0,0.,24.0,0.,24.0
1986-01-25 15:53:45.270 ,4,1,0.,24.0,0.,24.0,0.,24.0,0.,24.0
1986-01-25 15:54:09.270 ,4,0,0.,24.0,0.,24.0,0.,24.0,0.,24.0
1986-01-25 15:54:33.270 ,3,1,0.,24.0,0.,24.0,0.,24.0,0.,24.0
1986-01-25 15:54:57.270 ,3,0,0.,24.0,0.,24.0,0.,24.0,0.,24.0
1986-01-25 15:55:21.270 ,2,1,0.,24.0,0.,24.0,0.,24.0,0.,24.0
1986-01-25 15:55:45.270 ,2,0,0.,24.0,0.,24.0,0.,24.0,0.,24.0
1986-01-25 15:56:09.270 ,1,1,0.,24.0,0.,24.0,0.,24.0,0.,24.0
1986-01-25 15:56:33.270 ,1,0,0.,24.0,0.,24.0,0.,24.0,0.,24.0
1986-01-25 15:56:57.270 ,0,1,0.,24.0,0.,24.0,0.,24.0,0.,24.0
1986-01-25 15:57:21.270 ,0,0,0.,24.0,0.,24.0,0.,24.0,0.,24.0
1986-01-25 15:57:45.270 ,0,1,0.,24.0,0.,24.0,0.,24.0,0.,24.0
1986-01-25 15:58:09.270 ,0,0,0.,24.0,0.,24.0,0.,24.0,0.,24.0
1986-01-25 15:58:33.270 ,1,1,0.,24.0,0.,24.0,0.,24.0,0.,24.0
1986-01-25 15:58:57.270 ,1,0,0.,24.0,0.,24.0,0.,24.0,0.,24.0
1986-01-25 15:59:21.270 ,2,1,0.,24.0,0.,24.0,0.,24.0,0.,24.0
1986-01-25 15:59:45.270 ,2,0,0.,24.0,0.,24.0,0.,24.0,0.,24.0
1986-01-25 16:00:09.280 ,3,1,0.,24.0,0.,24.0,0.,24.0,0.,24.0
1986-01-25 16:00:33.280 ,3,0,0.,24.0,0.,24.0,0.,24.0,0.,24.0
1986-01-25 16:00:57.280 ,4,1,0.,24.0,0.,24.0,0.,24.0,0.,24.0
1986-01-25 16:01:21.280 ,4,0,0.,24.0,0.,24.0,0.,24.0,0.,24.0
1986-01-25 16:01:45.280 ,5,1,0.,24.0,0.,24.0,0.,24.0,0.,24.0
1986-01-25 16:02:09.280 ,5,0,0.,24.0,0.,24.0,0.,24.0,0.,24.0
1986-01-25 16:02:33.270 ,6,1,0.,24.0,0.,24.0,0.,24.0,0.,24.0
1986-01-25 16:02:57.270 ,6,0,0.,24.0,0.,24.0,0.,24.0,0.,24.0
1986-01-25 16:03:21.270 ,7,1,0.,24.0,0.,24.0,0.,24.0,0.,24.0
1986-01-25 16:03:45.270 ,0,0,0.,24.0,0.,24.0,0.,24.0,0.,24.0
1986-01-25 16:04:43.470 ,0,0,,0,,0,,0,,0
1986-01-25 16:05:48.870 ,0,0,0.,24.0,8192.,24.0,0.,24.0,0.,24.0
1986-01-25 16:06:09.270 ,0,0,0.,24.0,0.,24.0,0.,24.0,8192.,24.0
1986-01-25 16:06:33.270 ,4,1,0.,24.0,0.,24.0,0.,24.0,0.,24.0
1986-01-25 16:06:57.270 ,4,0,0.,24.0,0.,24.0,0.,24.0,0.,24.0
1986-01-25 16:07:21.270 ,3,1,0.,24.0,0.,24.0,0.,24.0,0.,24.0
1986-01-25 16:07:45.270 ,3,0,0.,24.0,0.,24.0,0.,24.0,0.,24.0
1986-01-25 16:08:09.270 ,2,1,0.,24.0,0.,24.0,0.,24.0,0.,24.0
1986-01-25 16:08:33.270 ,2,0,0.,24.0,0.,24.0,0.,24.0,0.,24.0
1986-01-25 16:08:57.270 ,1,1,0.,24.0,0.,24.0,0.,24.0,0.,24.0
1986-01-25 16:09:21.270 ,1,0,0.,24.0,0.,24.0,0.,24.0,0.,24.0
1986-01-25 16:09:45.270 ,0,1,0.,24.0,0.,24.0,0.,24.0,0.,24.0
1986-01-25 16:10:09.270 ,0,0,0.,24.0,0.,24.0,0.,24.0,0.,24.0
1986-01-25 16:10:33.270 ,0,1,0.,24.0,0.,24.0,0.,24.0,0.,24.0
1986-01-25 16:10:57.270 ,0,0,0.,24.0,0.,24.0,0.,24.0,0.,24.0
1986-01-25 16:11:21.270 ,1,1,0.,24.0,0.,24.0,0.,24.0,0.,24.0
1986-01-25 16:11:45.270 ,1,0,0.,24.0,0.,24.0,0.,24.0,0.,24.0
1986-01-25 16:12:09.270 ,2,1,0.,24.0,0.,24.0,0.,24.0,0.,24.0
1986-01-25 16:12:33.270 ,2,0,0.,24.0,0.,24.0,0.,24.0,0.,24.0
1986-01-25 16:12:57.270 ,3,1,0.,24.0,0.,24.0,0.,24.0,0.,24.0
1986-01-25 16:13:21.270 ,0,0,,0,,0,,0,,0
1986-01-25 16:13:47.670 ,0,0,,0,,0,,0,,0
1986-01-25 16:14:09.270 ,0,0,,0,,0,,0,,0
1986-01-25 16:14:33.270 ,5,1,0.,24.0,0.,24.0,0.,24.0,0.,24.0
1986-01-25 16:14:57.270 ,5,0,0.,24.0,0.,24.0,0.,24.0,0.,24.0
1986-01-25 16:15:21.270 ,6,1,0.,24.0,0.,24.0,0.,24.0,0.,24.0
1986-01-25 16:15:45.270 ,0,0,,0,,0,,0,,0
1986-01-25 16:16:12.270 ,0,0,0.,24.0,0.,24.0,0.,24.0,0.,24.0
1986-01-25 16:16:33.270 ,0,0,0.,24.0,0.,24.0,0.,24.0,0.,24.0
1986-01-25 16:16:57.270 ,7,1,0.,24.0,0.,24.0,0.,24.0,0.,24.0
1986-01-25 16:17:21.270 ,7,0,0.,24.0,0.,24.0,0.,24.0,0.,24.0
1986-01-25 16:17:45.270 ,6,1,0.,24.0,0.,24.0,0.,24.0,0.,24.0
1986-01-25 16:18:09.270 ,6,0,0.,24.0,0.,24.0,0.,24.0,0.,24.0
1986-01-25 16:18:33.270 ,5,1,0.,24.0,0.,24.0,0.,24.0,0.,24.0
1986-01-25 16:18:57.270 ,5,0,0.,24.0,0.,24.0,0.,24.0,0.,24.0
1986-01-25 16:19:21.270 ,4,1,0.,24.0,0.,24.0,0.,24.0,0.,24.0
1986-01-25 16:19:45.270 ,4,0,0.,24.0,0.,24.0,0.,24.0,0.,24.0
1986-01-25 16:20:09.270 ,3,1,0.,24.0,0.,24.0,0.,24.0,0.,24.0
1986-01-25 16:20:33.270 ,3,0,0.,24.0,0.,24.0,0.,24.0,0.,24.0
1986-01-25 16:20:57.270 ,2,1,0.,24.0,0.,24.0,0.,24.0,0.,24.0
1986-01-25 16:21:21.270 ,2,0,0.,24.0,0.,24.0,0.,24.0,0.,24.0
1986-01-25 16:21:45.270 ,1,1,0.,24.0,0.,24.0,0.,24.0,0.,24.0
1986-01-25 16:22:09.270 ,1,0,0.,24.0,0.,24.0,0.,24.0,0.,24.0
1986-01-25 16:22:33.270 ,0,1,0.,24.0,0.,24.0,0.,24.0,0.,24.0
1986-01-25 16:22:57.270 ,0,0,0.,24.0,0.,24.0,0.,24.0,0.,24.0
1986-01-25 16:23:21.270 ,0,1,0.,24.0,0.,24.0,0.,24.0,0.,24.0
1986-01-25 16:23:45.270 ,0,0,0.,24.0,0.,24.0,0.,24.0,0.,24.0
1986-01-25 16:24:09.270 ,1,1,0.,24.0,0.,24.0,0.,24.0,0.,24.0
1986-01-25 16:24:33.270 ,1,0,0.,24.0,0.,24.0,0.,24.0,0.,24.0
1986-01-25 16:24:57.270 ,2,1,0.,24.0,0.,24.0,0.,24.0,0.,24.0
1986-01-25 16:25:21.270 ,2,0,0.,24.0,0.,24.0,0.,24.0,0.,24.0
1986-01-25 16:25:45.270 ,3,1,0.,24.0,0.,24.0,0.,24.0,0.,24.0
1986-01-25 16:26:09.270 ,3,0,0.,24.0,0.,24.0,0.,24.0,0.,24.0
1986-01-25 16:26:33.270 ,4,1,0.,24.0,0.,24.0,0.,24.0,0.,24.0
1986-01-25 16:26:57.270 ,4,0,0.,24.0,0.,24.0,0.,24.0,0.,24.0
1986-01-25 16:27:21.270 ,5,1,0.,24.0,0.,24.0,0.,24.0,0.,24.0
1986-01-25 16:27:45.270 ,5,0,0.,24.0,0.,24.0,0.,24.0,0.,24.0
1986-01-25 16:28:09.270 ,6,1,0.,24.0,0.,24.0,0.,24.0,0.,24.0
1986-01-25 16:28:33.270 ,6,0,0.,24.0,0.,24.0,0.,24.0,0.,24.0
1986-01-25 16:28:57.270 ,7,1,0.,24.0,0.,24.0,0.,24.0,0.,24.0
1986-01-25 16:29:21.270 ,7,0,0.,24.0,0.,24.0,0.,24.0,0.,24.0
1986-01-25 16:29:45.270 ,7,1,0.,24.0,0.,24.0,0.,24.0,0.,24.0
1986-01-25 16:30:09.270 ,7,0,0.,24.0,0.,24.0,0.,24.0,0.,24.0
1986-01-25 16:30:33.270 ,6,1,0.,24.0,0.,24.0,0.,24.0,0.,24.0
1986-01-25 16:30:57.270 ,6,0,0.,24.0,0.,24.0,0.,24.0,0.,24.0
1986-01-25 16:31:21.270 ,5,1,0.,24.0,0.,24.0,0.,24.0,0.,24.0
1986-01-25 16:31:45.270 ,5,0,0.,24.0,0.,24.0,0.,24.0,0.,24.0
1986-01-25 16:32:09.270 ,4,1,0.,24.0,0.,24.0,0.,24.0,0.,24.0
1986-01-25 16:32:33.270 ,4,0,0.,24.0,0.,24.0,0.,24.0,0.,24.0
1986-01-25 16:32:57.270 ,3,1,0.,24.0,0.,24.0,0.,24.0,0.,24.0
1986-01-25 16:33:21.270 ,3,0,0.,24.0,0.,24.0,0.,24.0,0.,24.0
1986-01-25 16:33:45.270 ,2,1,0.,24.0,0.,24.0,0.,24.0,0.,24.0
1986-01-25 16:34:09.270 ,2,0,0.,24.0,0.,24.0,0.,24.0,0.,24.0
1986-01-25 16:34:33.270 ,1,1,0.,24.0,0.,24.0,0.,24.0,0.,24.0
1986-01-25 16:34:57.270 ,1,0,0.,24.0,0.,24.0,0.,24.0,0.,24.0
1986-01-25 16:35:21.270 ,0,1,0.,24.0,0.,24.0,0.,24.0,0.,24.0
1986-01-25 16:35:45.270 ,0,0,0.,24.0,0.,24.0,0.,24.0,0.,24.0
1986-01-25 16:36:09.270 ,0,1,0.,24.0,0.,24.0,0.,24.0,0.,24.0
1986-01-25 16:36:33.270 ,0,0,0.,24.0,0.,24.0,0.,24.0,0.,24.0
1986-01-25 16:36:57.270 ,1,1,0.,24.0,0.,24.0,0.,24.0,0.,24.0
1986-01-25 16:37:21.270 ,1,0,0.,24.0,0.,24.0,0.,24.0,0.,24.0
1986-01-25 16:37:45.270 ,2,1,0.,24.0,0.,24.0,0.,24.0,0.,24.0
1986-01-25 16:38:09.270 ,2,0,0.,24.0,0.,24.0,0.,24.0,0.,24.0
1986-01-25 16:38:33.270 ,3,1,0.,24.0,0.,24.0,0.,24.0,0.,24.0
1986-01-25 16:38:57.270 ,3,0,0.,24.0,0.,24.0,0.,24.0,0.,24.0
1986-01-25 16:39:21.270 ,4,1,0.,24.0,0.,24.0,0.,24.0,0.,24.0
1986-01-25 16:39:45.270 ,4,0,0.,24.0,0.,24.0,0.,24.0,0.,24.0
1986-01-25 16:40:09.270 ,5,1,0.,24.0,0.,24.0,0.,24.0,0.,24.0
1986-01-25 16:40:33.270 ,5,0,0.,24.0,0.,24.0,0.,24.0,0.,24.0
1986-01-25 16:40:57.270 ,6,1,0.,24.0,0.,24.0,0.,24.0,0.,24.0
1986-01-25 16:41:21.270 ,6,0,0.,24.0,0.,24.0,0.,24.0,0.,24.0
1986-01-25 16:41:45.270 ,7,1,0.,24.0,0.,24.0,0.,24.0,0.,24.0
1986-01-25 16:42:09.270 ,7,0,0.,24.0,0.,24.0,0.,24.0,0.,24.0
1986-01-25 16:42:33.270 ,7,1,0.,24.0,0.,24.0,0.,24.0,0.,24.0
1986-01-25 16:42:57.270 ,7,0,0.,24.0,0.,24.0,0.,24.0,0.,24.0
1986-01-25 16:43:21.270 ,6,1,0.,24.0,0.,24.0,0.,24.0,0.,24.0
1986-01-25 16:43:45.270 ,6,0,0.,24.0,0.,24.0,0.,24.0,0.,24.0
1986-01-25 16:44:09.270 ,5,1,0.,24.0,0.,24.0,0.,24.0,0.,24.0
1986-01-25 16:44:33.270 ,5,0,0.,24.0,0.,24.0,0.,24.0,0.,24.0
1986-01-25 16:44:57.270 ,4,1,0.,24.0,0.,24.0,0.,24.0,0.,24.0
1986-01-25 16:45:21.270 ,4,0,0.,24.0,0.,24.0,0.,24.0,0.,24.0
1986-01-25 16:45:45.270 ,3,1,0.,24.0,0.,24.0,0.,24.0,0.,24.0
1986-01-25 16:46:09.270 ,3,0,0.,24.0,0.,24.0,0.,24.0,0.,24.0
1986-01-25 16:46:33.270 ,2,1,0.,24.0,0.,24.0,0.,24.0,0.,24.0
1986-01-25 16:46:57.270 ,2,0,0.,24.0,0.,24.0,0.,24.0,0.,24.0
1986-01-25 16:47:21.270 ,1,1,0.,24.0,0.,24.0,0.,24.0,0.,24.0
1986-01-25 16:47:45.270 ,1,0,0.,24.0,0.,24.0,0.,24.0,0.,24.0
1986-01-25 16:48:09.270 ,0,1,0.,24.0,0.,24.0,0.,24.0,0.,24.0
1986-01-25 16:48:33.270 ,0,0,0.,24.0,0.,24.0,0.,24.0,0.,24.0
1986-01-25 16:48:57.270 ,0,1,0.,24.0,0.,24.0,0.,24.0,0.,24.0
1986-01-25 16:49:21.270 ,0,0,0.,24.0,0.,24.0,0.,24.0,0.,24.0
1986-01-25 16:49:45.270 ,1,1,0.,24.0,0.,24.0,0.,24.0,0.,24.0
1986-01-25 16:50:09.270 ,1,0,0.,24.0,0.,24.0,0.,24.0,0.,24.0
1986-01-25 16:50:33.270 ,2,1,0.,24.0,0.,24.0,0.,24.0,0.,24.0
1986-01-25 16:50:57.270 ,2,0,0.,24.0,0.,24.0,0.,24.0,0.,24.0
1986-01-25 16:51:21.270 ,3,1,0.,24.0,0.,24.0,0.,24.0,0.,24.0
1986-01-25 16:51:45.270 ,3,0,0.,24.0,0.,24.0,0.,24.0,0.,24.0
1986-01-25 16:52:09.270 ,4,1,0.,24.0,0.,24.0,0.,24.0,0.,24.0
1986-01-25 16:52:33.270 ,4,0,0.,24.0,0.,24.0,0.,24.0,0.,24.0
1986-01-25 16:52:57.270 ,5,1,0.,24.0,0.,24.0,0.,24.0,0.,24.0
1986-01-25 16:53:21.270 ,5,0,0.,24.0,0.,24.0,0.,24.0,0.,24.0
1986-01-25 16:53:45.270 ,6,1,0.,24.0,0.,24.0,0.,24.0,0.,24.0
1986-01-25 16:54:09.270 ,6,0,0.,24.0,0.,24.0,0.,24.0,0.,24.0
1986-01-25 16:54:33.270 ,7,1,0.,24.0,0.,24.0,0.,24.0,0.,24.0
1986-01-25 16:54:57.270 ,7,0,0.,24.0,0.,24.0,0.,24.0,0.,24.0
1986-01-25 16:55:21.270 ,7,1,0.,24.0,0.,24.0,0.,24.0,0.,24.0
1986-01-25 16:55:45.270 ,7,0,0.,24.0,0.,24.0,0.,24.0,0.,24.0
1986-01-25 16:56:09.270 ,6,1,0.,24.0,0.,24.0,0.,24.0,0.,24.0
1986-01-25 16:56:33.270 ,6,0,0.,24.0,0.,24.0,0.,24.0,0.,24.0
1986-01-25 16:56:57.270 ,5,1,0.,24.0,0.,24.0,0.,24.0,0.,24.0
1986-01-25 16:57:21.270 ,5,0,0.,24.0,0.,24.0,0.,24.0,0.,24.0
1986-01-25 16:57:45.270 ,4,1,0.,24.0,0.,24.0,0.,24.0,0.,24.0
1986-01-25 16:58:09.270 ,4,0,0.,24.0,0.,24.0,0.,24.0,0.,24.0
1986-01-25 16:58:33.270 ,3,1,0.,24.0,0.,24.0,0.,24.0,0.,24.0
1986-01-25 16:58:57.270 ,3,0,0.,24.0,0.,24.0,0.,24.0,0.,24.0
1986-01-25 16:59:21.270 ,2,1,0.,24.0,0.,24.0,0.,24.0,0.,24.0
1986-01-25 16:59:45.270 ,2,0,0.,24.0,0.,24.0,0.,24.0,0.,24.0
1986-01-25 17:00:09.270 ,1,1,0.,24.0,0.,24.0,0.,24.0,0.,24.0
1986-01-25 17:00:33.270 ,1,0,0.,24.0,0.,24.0,0.,24.0,0.,24.0
1986-01-25 17:00:57.270 ,0,1,0.,24.0,0.,24.0,0.,24.0,0.,24.0
1986-01-25 17:01:21.270 ,0,0,0.,24.0,0.,24.0,0.,24.0,0.,24.0
1986-01-25 17:01:45.270 ,0,1,0.,24.0,0.,24.0,0.,24.0,0.,24.0
1986-01-25 17:02:09.270 ,0,0,0.,24.0,0.,24.0,0.,24.0,0.,24.0
1986-01-25 17:02:33.270 ,1,1,0.,24.0,0.,24.0,0.,24.0,0.,24.0
1986-01-25 17:02:57.270 ,1,0,0.,24.0,0.,24.0,0.,24.0,0.,24.0
1986-01-25 17:03:21.270 ,2,1,0.,24.0,0.,24.0,0.,24.0,0.,24.0
1986-01-25 17:03:45.270 ,2,0,0.,24.0,0.,24.0,0.,24.0,0.,24.0
1986-01-25 17:04:09.270 ,3,1,0.,24.0,0.,24.0,0.,24.0,0.,24.0
1986-01-25 17:04:33.270 ,3,0,0.,24.0,0.,24.0,0.,24.0,0.,24.0
1986-01-25 17:04:57.270 ,4,1,0.,24.0,0.,24.0,0.,24.0,0.,24.0
1986-01-25 17:05:21.270 ,4,0,0.,24.0,0.,24.0,0.,24.0,0.,24.0
1986-01-25 17:05:45.270 ,5,1,0.,24.0,0.,24.0,0.,24.0,0.,24.0
1986-01-25 17:06:09.270 ,5,0,0.,24.0,0.,24.0,0.,24.0,0.,24.0
1986-01-25 17:06:33.270 ,6,1,0.,24.0,0.,24.0,0.,24.0,0.,24.0
1986-01-25 17:06:57.270 ,6,0,0.,24.0,0.,24.0,0.,24.0,0.,24.0
1986-01-25 17:07:21.270 ,7,1,0.,24.0,0.,24.0,0.,24.0,0.,24.0
1986-01-25 17:07:45.270 ,7,0,0.,24.0,0.,24.0,0.,24.0,0.,24.0
1986-01-25 17:08:09.270 ,7,1,0.,24.0,0.,24.0,0.,24.0,0.,24.0
1986-01-25 17:08:33.270 ,7,0,0.,24.0,0.,24.0,0.,24.0,0.,24.0
1986-01-25 17:08:57.270 ,6,1,0.,24.0,0.,24.0,0.,24.0,0.,24.0
1986-01-25 17:09:21.270 ,6,0,0.,24.0,0.,24.0,0.,24.0,0.,24.0
1986-01-25 17:09:45.270 ,5,1,0.,24.0,0.,24.0,0.,24.0,0.,24.0
1986-01-25 17:10:09.270 ,5,0,0.,24.0,0.,24.0,0.,24.0,0.,24.0
1986-01-25 17:10:33.270 ,4,1,0.,24.0,0.,24.0,0.,24.0,0.,24.0
1986-01-25 17:10:57.270 ,4,0,0.,24.0,0.,24.0,0.,24.0,0.,24.0
1986-01-25 17:11:21.270 ,3,1,0.,24.0,0.,24.0,0.,24.0,0.,24.0
1986-01-25 17:11:45.270 ,3,0,0.,24.0,0.,24.0,0.,24.0,0.,24.0
1986-01-25 17:12:09.270 ,2,1,0.,24.0,0.,24.0,0.,24.0,0.,24.0
1986-01-25 17:12:33.270 ,2,0,0.,24.0,0.,24.0,0.,24.0,0.,24.0
1986-01-25 17:12:57.270 ,1,1,0.,24.0,0.,24.0,0.,24.0,0.,24.0
1986-01-25 17:13:21.270 ,1,0,0.,24.0,0.,24.0,0.,24.0,0.,24.0
1986-01-25 17:13:45.270 ,0,1,0.,24.0,0.,24.0,0.,24.0,0.,24.0
1986-01-25 17:14:09.270 ,0,0,0.,24.0,0.,24.0,0.,24.0,0.,24.0
1986-01-25 17:14:33.270 ,0,1,0.,24.0,0.,24.0,0.,24.0,0.,24.0
1986-01-25 17:14:57.270 ,0,0,0.,24.0,0.,24.0,0.,24.0,0.,24.0
1986-01-25 17:15:21.270 ,1,1,0.,24.0,0.,24.0,0.,24.0,0.,24.0
1986-01-25 17:15:45.270 ,1,0,0.,24.0,0.,24.0,0.,24.0,0.,24.0
1986-01-25 17:16:09.270 ,2,1,0.,24.0,0.,24.0,0.,24.0,0.,24.0
1986-01-25 17:16:33.270 ,2,0,0.,24.0,0.,24.0,0.,24.0,0.,24.0
1986-01-25 17:16:57.270 ,3,1,0.,24.0,0.,24.0,0.,24.0,0.,24.0
1986-01-25 17:17:21.270 ,3,0,0.,24.0,0.,24.0,0.,24.0,0.,24.0
1986-01-25 17:17:45.270 ,4,1,0.,24.0,0.,24.0,0.,24.0,0.,24.0
1986-01-25 17:18:09.270 ,4,0,0.,24.0,0.,24.0,0.,24.0,0.,24.0
1986-01-25 17:18:33.270 ,5,1,0.,24.0,0.,24.0,0.,24.0,0.,24.0
1986-01-25 17:18:57.270 ,5,0,0.,24.0,0.,24.0,0.,24.0,0.,24.0
1986-01-25 17:19:21.270 ,6,1,0.,24.0,0.,24.0,0.,24.0,0.,24.0
1986-01-25 17:19:45.270 ,6,0,0.,24.0,0.,24.0,0.,24.0,0.,24.0
1986-01-25 17:20:09.270 ,7,1,0.,24.0,0.,24.0,0.,24.0,0.,24.0
1986-01-25 17:20:33.270 ,7,0,0.,24.0,0.,24.0,0.,24.0,0.,24.0
1986-01-25 17:20:57.270 ,7,1,0.,24.0,0.,24.0,0.,24.0,0.,24.0
1986-01-25 17:21:21.270 ,7,0,0.,24.0,0.,24.0,0.,24.0,0.,24.0
1986-01-25 17:21:45.270 ,6,1,0.,24.0,0.,24.0,0.,24.0,0.,24.0
1986-01-25 17:22:09.270 ,6,0,0.,24.0,0.,24.0,0.,24.0,0.,24.0
1986-01-25 17:22:33.270 ,5,1,0.,24.0,0.,24.0,0.,24.0,0.,24.0
1986-01-25 17:22:57.270 ,5,0,0.,24.0,0.,24.0,0.,24.0,0.,24.0
1986-01-25 17:23:21.270 ,4,1,0.,24.0,0.,24.0,0.,24.0,0.,24.0
1986-01-25 17:23:45.270 ,4,0,0.,24.0,0.,24.0,0.,24.0,0.,24.0
1986-01-25 17:24:09.270 ,3,1,0.,24.0,0.,24.0,0.,24.0,0.,24.0
1986-01-25 17:24:33.270 ,3,0,0.,24.0,0.,24.0,0.,24.0,0.,24.0
1986-01-25 17:24:57.270 ,2,1,0.,24.0,0.,24.0,0.,24.0,0.,24.0
1986-01-25 17:25:21.270 ,2,0,0.,24.0,0.,24.0,0.,24.0,0.,24.0
1986-01-25 17:25:45.270 ,1,1,0.,24.0,0.,24.0,0.,24.0,0.,24.0
1986-01-25 17:26:09.270 ,1,0,0.,24.0,0.,24.0,0.,24.0,0.,24.0
1986-01-25 17:26:33.270 ,0,1,0.,24.0,0.,24.0,0.,24.0,0.,24.0
1986-01-25 17:26:57.270 ,0,0,0.,24.0,0.,24.0,0.,24.0,0.,24.0
1986-01-25 17:27:21.270 ,0,1,0.,24.0,0.,24.0,0.,24.0,0.,24.0
1986-01-25 17:27:45.270 ,0,0,0.,24.0,0.,24.0,0.,24.0,0.,24.0
1986-01-25 17:28:09.270 ,1,1,0.,24.0,0.,24.0,0.,24.0,0.,24.0
1986-01-25 17:28:33.270 ,1,0,0.,24.0,0.,24.0,0.,24.0,0.,24.0
1986-01-25 17:28:57.270 ,2,1,0.,24.0,0.,24.0,0.,24.0,0.,24.0
1986-01-25 17:29:21.270 ,2,0,0.,24.0,0.,24.0,0.,24.0,0.,24.0
1986-01-25 17:29:45.270 ,3,1,0.,24.0,0.,24.0,0.,24.0,0.,24.0
1986-01-25 17:30:09.270 ,3,0,0.,24.0,0.,24.0,0.,24.0,0.,24.0
1986-01-25 17:30:33.270 ,4,1,0.,24.0,0.,24.0,0.,24.0,0.,24.0
1986-01-25 17:30:57.270 ,4,0,0.,24.0,0.,24.0,0.,24.0,0.,24.0
1986-01-25 17:31:21.270 ,5,1,0.,24.0,0.,24.0,0.,24.0,0.,24.0
1986-01-25 17:31:45.270 ,5,0,0.,24.0,0.,24.0,0.,24.0,0.,24.0
1986-01-25 17:32:09.270 ,6,1,0.,24.0,0.,24.0,0.,24.0,0.,24.0
1986-01-25 17:32:33.270 ,6,0,0.,24.0,0.,24.0,0.,24.0,0.,24.0
1986-01-25 17:32:57.270 ,7,1,0.,24.0,0.,24.0,0.,24.0,0.,24.0
1986-01-25 17:33:21.270 ,7,0,0.,24.0,0.,24.0,0.,24.0,0.,24.0
1986-01-25 17:33:45.270 ,7,1,0.,24.0,0.,24.0,0.,24.0,0.,24.0
1986-01-25 17:34:09.270 ,7,0,0.,24.0,0.,24.0,0.,24.0,0.,24.0
1986-01-25 17:34:33.270 ,6,1,0.,24.0,0.,24.0,0.,24.0,0.,24.0
1986-01-25 17:34:57.270 ,6,0,0.,24.0,0.,24.0,0.,24.0,0.,24.0
1986-01-25 17:35:21.270 ,5,1,0.,24.0,0.,24.0,0.,24.0,0.,24.0
1986-01-25 17:35:45.270 ,5,0,0.,24.0,0.,24.0,0.,24.0,0.,24.0
1986-01-25 17:36:09.270 ,4,1,0.,24.0,0.,24.0,0.,24.0,0.,24.0